カタログに戻る

STARLINK-34231

運用中通信VLEO
NORAD 64175·PAYLOAD·🇺🇸 United States

打ち上げ May 28, 2025 から Cape Canaveral Space Force Station

Loading…

次のパス (今後24時間)

TLE

最新Source: CelesTrak SupGP

元期: Sep 14, 2026, 23:08 UTC

1 64175C 25113F   26257.96437500  .00055951  00000+0  17998-2 0  2578
2 64175  53.1582 290.6359 0001128  97.7112 230.5767 15.31664530    17

AllMySatでSTARLINK-34231をリアルタイム追跡

Download on the App Store